FENGYUN 1C DEB, 31178

Orbit data source: Space-Track

FENGYUN 1C DEB, 31178 is space debris in SSO originally from a launch on Mon, 10 May 1999 UTC launched from the Taiyaun Space Center, China (TSC). Fengyun 1C debris stems from the Chinese weather satellite Fengyun-1C, which was intentionally destroyed by a Chinese anti-satellite missile in 2007. This event dramatically increased the amount of space debris, with thousands of trackable fragments posing hazards to satellites and human spaceflight. The Fengyun 1C debris cloud has become a focal point in discussions about space sustainability and the need for international regulations to prevent the creation of new debris.

Loading next visibility...
Identifier
31178, 1999-025BJG
Orbit
SSO
Country
Flag of CNCN / PRC
Related business
Manufacturer
Unknown
Mission
Spacecraft
Bus & Motor
Unknown
Mass
Unknown
Launch date (UTC)
1999-05-10 (27 years ago)
Launch vehicle
Unknown
Launch site
Taiyaun Space Center, China (TSC)
Object type
Payload
Rocket body
Debris
Shape & HBR
Unknown shape, 0.1 m
Radar Cross Section
Small (<0.1 m²)

Expand to show TLE details & history
Last TLE update: 17 hours ago

TLE from 17 hours ago
0 FENGYUN 1C DEB
1 31178U 99025BJG 26207.91128879  .00003637  00000-0  14853-2 0  9999
2 31178  99.5077 233.2435 0124028  37.1642 323.8041 14.23899862990327
Epoch: 2026-07-26T21:52Z
TLE epoch observation values (Epoch: 2026-07-26T21:52:15.351Z)
Latitude
0.00004°
Longitude
-39.4229°
Altitude
743.496 km
Speed
7.52 km/s
True Right ascension
15h 32m 58s
True Declination
0° 00' 00"
Sunlit
Object was in daylight at epoch
Visualization orbit readout
Latitude
Unknown
Longitude
Unknown
Altitude
Unknown
Speed
Unknown
Apparent Right ascension
Unknown
Apparent Declination
Unknown
Sunlit
N/A
Visualization observer readout
Local Sidereal Time
04:26:24
Azimuth
Unknown
Elevation
Unknown
Doppler factor
Unknown
Orbital elements
Apogee altitude
898.532 km
Perigee altitude
720.241 km
Semi-major axis
7,187.524 km
Eccentricity
0.0124
Inclination
99.5077°
RAAN
233.2435°
Arg. of periapsis
37.1642°
True anomaly
322.95418°
Mean anomaly
323.8041°
Eccentric anomaly
323.38021°
Mean motion
3.56184 °/min
Orbital period
101.07 mins
BSTAR
0.0014853
Loading maneuver chart data...
Computing Atmospheric mass density...

Documentation

Showing up to 5 results
|